McCook, NE

10:03 AM CDT on September 23, 2017 (GMT -0500)
McCook Municipal

Weather History for KMCK - October, 2012

Change the Weather History Date:

Monday, October 8, 2012

  Actual Average Record
Temperature  
Mean Temperature 53 °F 54 °F  
Max Temperature 76 °F 70 °F 94 °F (1928)
Min Temperature 29 °F 39 °F 18 °F (2000)
Degree Days  
Heating Degree Days 14    
Growing Degree Days 2 (Base 50)    
Moisture  
Dew Point 26 °F    
Average Humidity 49    
Maximum Humidity 85    
Minimum Humidity 13    
Precipitation  
Precipitation 0.00 in 0.06 in 0.93 in (2011)
Month to date precipitation 0.32 0.46  
Year to date precipitation 7.91 19.61  
Sea Level Pressure  
Sea Level Pressure 29.92 in    
Wind  
Wind Speed 8 mph (WSW)    
Max Wind Speed 14 mph    
Max Gust Speed 21 mph    
Visibility 10 miles    
Events      
T = Trace of Precipitation, MM = Missing Value Source: NWS Daily Summary

Daily Weather History Graph

Daily Weather History Graph

Search for Another Location

Airport or City:

Trip Planner

Search our weather history database for the weather conditions in past years. The results will help you decide how hot, cold, wet, or windy it might be!

Date:

Astronomy

Oct. 08, 2012 Rise Set
Actual Time 7:46 AM CDT 7:12 PM CDT
Civil Twilight 7:19 AM CDT 7:39 PM CDT
Nautical Twilight 6:47 AM CDT 8:11 PM CDT
Astronomical Twilight 6:16 AM CDT 8:42 PM CDT
Moon 12:27 AM CDT (10/8) 3:03 PM CDT (10/8)
Length of Visible Light 12h 20m
Length of Day
11h 26m
Last Quarter, 46% of the Moon is Illuminated
Oct 8
Last Quarter
Oct 15
New
Oct 21
First Quarter
Oct 29
Full
Nov 6
Last Quarter

Hourly Weather History & Observations

Time (CDT) Temp. Windchill Dew Point Humidity Pressure Visibility Wind Dir Wind Speed Gust Speed Precip Events Conditions
12:53 AM 32.0 °F 24.2 °F 25.0 °F 75% 30.07 in 10.0 mi SW 9.2 mph - N/A   Clear
1:53 AM 30.9 °F 24.3 °F 24.1 °F 76% 30.06 in 10.0 mi WSW 6.9 mph - N/A   Clear
2:53 AM 32.0 °F 24.2 °F 25.0 °F 75% 30.05 in 10.0 mi SW 9.2 mph - N/A   Clear
3:53 AM 35.1 °F 27.4 °F 24.1 °F 64% 30.02 in 10.0 mi WSW 10.4 mph - N/A   Clear
4:53 AM 35.1 °F 26.4 °F 23.0 °F 61% 30.00 in 10.0 mi WSW 12.7 mph - N/A   Clear
5:53 AM 30.0 °F 25.2 °F 24.1 °F 79% 30.01 in 10.0 mi West 4.6 mph - N/A   Clear
6:53 AM 28.9 °F 21.9 °F 25.0 °F 85% 29.99 in 10.0 mi WSW 6.9 mph - N/A   Clear
7:53 AM 30.0 °F 24.1 °F 26.1 °F 85% 30.00 in 10.0 mi West 5.8 mph - N/A   Clear
8:53 AM 37.0 °F 33.3 °F 30.0 °F 76% 30.00 in 10.0 mi SW 4.6 mph - N/A   Clear
9:53 AM 45.0 °F 38.9 °F 30.9 °F 58% 29.99 in 10.0 mi West 12.7 mph - N/A   Clear
10:53 AM 50.0 °F - 32.0 °F 50% 29.99 in 10.0 mi WSW 10.4 mph - N/A   Clear
11:53 AM 57.0 °F - 32.0 °F 39% 29.95 in 10.0 mi West 8.1 mph - N/A   Clear
12:53 PM 64.9 °F - 30.9 °F 28% 29.91 in 10.0 mi WSW 9.2 mph - N/A   Clear
1:53 PM 69.1 °F - 28.9 °F 22% 29.88 in 10.0 mi WSW 6.9 mph - N/A   Clear
2:53 PM 73.0 °F - 25.0 °F 17% 29.83 in 10.0 mi SW 8.1 mph - N/A   Clear
3:53 PM 73.9 °F - 21.0 °F 14% 29.81 in 10.0 mi West 13.8 mph 18.4 mph N/A   Clear
4:53 PM 75.0 °F - 19.9 °F 13% 29.80 in 10.0 mi West 12.7 mph 20.7 mph N/A   Clear
5:53 PM 72.0 °F - 19.9 °F 14% 29.81 in 10.0 mi WSW 8.1 mph - N/A   Clear
6:53 PM 69.1 °F - 23.0 °F 18% 29.81 in 10.0 mi SW 3.5 mph - N/A   Clear
7:53 PM 62.1 °F - 25.0 °F 24% 29.82 in 10.0 mi Calm Calm - N/A   Clear
8:53 PM 57.2 °F - 24.8 °F 29% 29.81 in 10.0 mi Calm Calm - N/A   Clear
9:53 PM 52.0 °F - 26.1 °F 37% 29.83 in 10.0 mi Calm Calm - N/A   Clear
10:53 PM 43.0 °F - 30.0 °F 60% 29.84 in 10.0 mi Calm Calm - N/A   Clear
11:53 PM 41.0 °F - 30.0 °F 65% 29.83 in 10.0 mi Calm Calm - N/A   Clear